RAM287 GMMN-FKKD

Flight info

Callsign RAM287
Flight time N/A
Altitude 35000
Route FOBAC UR722 MABAP DCT BULIS UR981 NY UT365 BOVDA UL684 ABC UW225 AKLIS UA604 KOKAM KOKAM1A
Aircraft B738/M-SDE2E3FGHIRWXY/LB1

Departure

Time N/A
Airport Mohammed V International Airport (GMMN)

Arrival

Time 2026-04-22 23:03
Airport Douala International Airport (FKKD)
Time Latitude Longitude Altitude Speed Heading
2026-04-22 18:46 31.02303 -8.43860 36958 ft 450 kts 196°
2026-04-22 18:46 30.96178 -8.45184 36947 ft 446 kts 196°
2026-04-22 18:47 30.90098 -8.46499 36955 ft 443 kts 196°
2026-04-22 18:47 30.84043 -8.47813 36958 ft 449 kts 197°
2026-04-22 18:48 30.77831 -8.49155 36999 ft 453 kts 196°
2026-04-22 18:48 30.71609 -8.50497 36970 ft 456 kts 196°
2026-04-22 18:49 30.65402 -8.51833 36958 ft 458 kts 197°
2026-04-22 18:49 30.59136 -8.53179 36958 ft 458 kts 197°
2026-04-22 18:50 30.53879 -8.54307 36961 ft 458 kts 197°
2026-04-22 18:50 30.46563 -8.55875 36964 ft 457 kts 197°
2026-04-22 18:51 30.40352 -8.57205 36956 ft 456 kts 197°
2026-04-22 18:51 30.34130 -8.58535 36966 ft 454 kts 197°
2026-04-22 18:52 30.27937 -8.59858 36957 ft 452 kts 196°
2026-04-22 18:52 30.21758 -8.61177 36961 ft 451 kts 197°
2026-04-22 18:53 30.15607 -8.62488 36965 ft 450 kts 197°
2026-04-22 18:53 30.09459 -8.63796 36950 ft 449 kts 197°
2026-04-22 18:54 30.03316 -8.65103 36946 ft 449 kts 197°
2026-04-22 18:54 29.97175 -8.66406 36961 ft 449 kts 197°
2026-04-22 18:55 29.91022 -8.67711 36960 ft 449 kts 197°
2026-04-22 18:55 29.84890 -8.69009 36970 ft 449 kts 197°
2026-04-22 18:56 29.78743 -8.70309 36967 ft 448 kts 197°
2026-04-22 18:56 29.72606 -8.71606 36973 ft 449 kts 197°
2026-04-22 18:57 29.66449 -8.72905 36970 ft 450 kts 198°
2026-04-22 18:57 29.60277 -8.74206 36963 ft 451 kts 198°
2026-04-22 18:58 29.54147 -8.75496 36967 ft 453 kts 198°
2026-04-22 18:58 29.47943 -8.76803 36964 ft 452 kts 198°
2026-04-22 18:59 29.41759 -8.78099 36960 ft 452 kts 198°
2026-04-22 18:59 29.35564 -8.79396 36952 ft 453 kts 198°
2026-04-22 19:00 29.29361 -8.80695 36952 ft 453 kts 198°
2026-04-22 19:00 29.23162 -8.81991 36924 ft 453 kts 199°
2026-04-22 19:01 29.16962 -8.83286 36937 ft 453 kts 199°
2026-04-22 19:01 29.10764 -8.84579 36943 ft 453 kts 199°
2026-04-22 19:02 29.04559 -8.85872 36944 ft 453 kts 199°
2026-04-22 19:02 28.98350 -8.87164 36944 ft 453 kts 199°
2026-04-22 19:03 28.92147 -8.88453 36939 ft 453 kts 199°
2026-04-22 19:03 28.85935 -8.89743 36944 ft 454 kts 199°
2026-04-22 19:04 28.79758 -8.91023 36952 ft 454 kts 199°
2026-04-22 19:04 28.73534 -8.92312 36953 ft 455 kts 199°
2026-04-22 19:05 28.67300 -8.93602 36953 ft 455 kts 199°
2026-04-22 19:05 28.61070 -8.94889 36948 ft 455 kts 200°
2026-04-22 19:06 28.54829 -8.96177 36951 ft 456 kts 200°
2026-04-22 19:07 28.45466 -8.98106 36966 ft 456 kts 200°
2026-04-22 19:07 28.39226 -8.99390 36957 ft 456 kts 200°
2026-04-22 19:08 28.32967 -9.00676 36949 ft 456 kts 200°
2026-04-22 19:08 28.26725 -9.01956 36958 ft 456 kts 200°
2026-04-22 19:09 28.20485 -9.03236 36964 ft 456 kts 200°
2026-04-22 19:09 28.15284 -9.04302 36960 ft 457 kts 200°
2026-04-22 19:10 28.07977 -9.05796 36968 ft 457 kts 200°
2026-04-22 19:10 28.01729 -9.07071 36956 ft 456 kts 201°
2026-04-22 19:11 27.95526 -9.08337 36967 ft 456 kts 201°
2026-04-22 19:11 27.89270 -9.09613 36963 ft 457 kts 201°
2026-04-22 19:12 27.83012 -9.10887 36973 ft 457 kts 201°
2026-04-22 19:12 27.76753 -9.12159 36961 ft 457 kts 201°
2026-04-22 19:13 27.70487 -9.13390 36960 ft 463 kts 197°
2026-04-22 19:13 27.67180 -9.13236 36974 ft 490 kts 178°
2026-04-22 19:13 27.63902 -9.11901 36956 ft 514 kts 158°
2026-04-22 19:14 27.58155 -9.06943 37004 ft 524 kts 147°
2026-04-22 19:14 27.52514 -9.01690 36986 ft 525 kts 147°
2026-04-22 19:15 27.47799 -8.97392 36972 ft 524 kts 148°
2026-04-22 19:15 27.41120 -8.91440 36975 ft 524 kts 148°
2026-04-22 19:16 27.35394 -8.86382 36977 ft 523 kts 148°
2026-04-22 19:16 27.29658 -8.81319 36979 ft 523 kts 148°
2026-04-22 19:17 27.23939 -8.76269 36982 ft 523 kts 148°
2026-04-22 19:17 27.18219 -8.71221 36960 ft 523 kts 148°
2026-04-22 19:18 27.12488 -8.66172 36980 ft 523 kts 148°
2026-04-22 19:18 27.06796 -8.61163 36984 ft 524 kts 148°
2026-04-22 19:19 27.01015 -8.56084 36983 ft 525 kts 148°
2026-04-22 19:19 26.95250 -8.51026 36981 ft 526 kts 148°
2026-04-22 19:20 26.89484 -8.45973 36948 ft 527 kts 149°
2026-04-22 19:20 26.83741 -8.40946 36968 ft 528 kts 149°
2026-04-22 19:21 26.77911 -8.35852 36976 ft 529 kts 149°
2026-04-22 19:21 26.72123 -8.30801 36974 ft 531 kts 148°
2026-04-22 19:22 26.66256 -8.25687 36968 ft 532 kts 148°
2026-04-22 19:22 26.60417 -8.20601 36938 ft 532 kts 149°
2026-04-22 19:23 26.54617 -8.15559 36956 ft 532 kts 149°
2026-04-22 19:23 26.48765 -8.10478 36964 ft 532 kts 149°
2026-04-22 19:24 26.42916 -8.05407 36962 ft 533 kts 149°
2026-04-22 19:24 26.37057 -8.00334 36961 ft 533 kts 149°
2026-04-22 19:25 26.31198 -7.95267 36928 ft 533 kts 149°
2026-04-22 19:25 26.25338 -7.90205 36950 ft 534 kts 149°
2026-04-22 19:26 26.20419 -7.85963 36958 ft 534 kts 149°
2026-04-22 19:26 26.14530 -7.80890 36959 ft 535 kts 149°
2026-04-22 19:27 26.08634 -7.75816 36956 ft 536 kts 149°
2026-04-22 19:27 26.02770 -7.70777 36927 ft 537 kts 150°
2026-04-22 19:28 25.96862 -7.65706 36947 ft 537 kts 150°
2026-04-22 19:28 25.90938 -7.60629 36964 ft 538 kts 150°
2026-04-22 19:29 25.85012 -7.55557 36954 ft 539 kts 149°
2026-04-22 19:29 25.79066 -7.50473 36953 ft 540 kts 149°
2026-04-22 19:30 25.74087 -7.46221 36905 ft 540 kts 150°
2026-04-22 19:30 25.67171 -7.40321 36940 ft 539 kts 150°
2026-04-22 19:31 25.61224 -7.35257 36952 ft 540 kts 150°
2026-04-22 19:31 25.55259 -7.30183 36952 ft 540 kts 150°
2026-04-22 19:32 25.49305 -7.25124 36949 ft 541 kts 150°
2026-04-22 19:32 25.43325 -7.20049 36942 ft 541 kts 150°
2026-04-22 19:33 25.37355 -7.14985 36943 ft 541 kts 150°
2026-04-22 19:33 25.31425 -7.09962 36952 ft 541 kts 150°
2026-04-22 19:34 25.25451 -7.04908 36944 ft 541 kts 150°
2026-04-22 19:34 25.19421 -6.99813 36948 ft 542 kts 150°
2026-04-22 19:35 25.13484 -6.94803 36929 ft 541 kts 150°
2026-04-22 19:35 25.07494 -6.89755 36933 ft 541 kts 150°
2026-04-22 19:36 25.01516 -6.84724 36945 ft 541 kts 150°
2026-04-22 19:36 24.95527 -6.79690 36951 ft 542 kts 150°
2026-04-22 19:37 24.89524 -6.74649 36949 ft 542 kts 150°
2026-04-22 19:37 24.83519 -6.69614 36920 ft 542 kts 150°
2026-04-22 19:38 24.77517 -6.64587 36935 ft 543 kts 150°
2026-04-22 19:38 24.71508 -6.59561 36946 ft 543 kts 150°
2026-04-22 19:39 24.65489 -6.54533 36939 ft 543 kts 150°
2026-04-22 19:39 24.59468 -6.49509 36952 ft 544 kts 150°
2026-04-22 19:40 24.53479 -6.44518 36953 ft 544 kts 150°
2026-04-22 19:40 24.47437 -6.39489 36943 ft 545 kts 150°
2026-04-22 19:41 24.41400 -6.34470 36936 ft 545 kts 150°
2026-04-22 19:41 24.35353 -6.29448 36939 ft 544 kts 150°
2026-04-22 19:42 24.29309 -6.24435 36941 ft 544 kts 150°
2026-04-22 19:42 24.23283 -6.19443 36910 ft 543 kts 151°
2026-04-22 19:43 24.14233 -6.11960 36945 ft 542 kts 151°
2026-04-22 19:43 24.08217 -6.07002 36954 ft 542 kts 151°
2026-04-22 19:44 24.02221 -6.02063 36934 ft 542 kts 151°
2026-04-22 19:44 23.96190 -5.97100 36949 ft 542 kts 151°
2026-04-22 19:45 23.90170 -5.92150 36944 ft 542 kts 151°
2026-04-22 19:45 23.84138 -5.87197 36948 ft 542 kts 151°
2026-04-22 19:46 23.78109 -5.82253 36950 ft 542 kts 151°
2026-04-22 19:46 23.72085 -5.77319 36955 ft 542 kts 151°
2026-04-22 19:47 23.66033 -5.72368 36956 ft 543 kts 151°
2026-04-22 19:47 23.59995 -5.67433 36948 ft 542 kts 151°
2026-04-22 19:48 23.53955 -5.62503 36950 ft 543 kts 151°
2026-04-22 19:48 23.47910 -5.57574 36955 ft 543 kts 151°
2026-04-22 19:49 23.41848 -5.52638 36950 ft 543 kts 151°
2026-04-22 19:49 23.35798 -5.47718 36949 ft 543 kts 151°
2026-04-22 19:50 23.29743 -5.42798 36955 ft 542 kts 151°
2026-04-22 19:50 23.23744 -5.37929 36947 ft 542 kts 151°
2026-04-22 19:51 23.17672 -5.33007 36970 ft 541 kts 152°
2026-04-22 19:51 23.11667 -5.28146 36942 ft 541 kts 152°
2026-04-22 19:52 23.05627 -5.23262 36958 ft 541 kts 152°
2026-04-22 19:52 22.99595 -5.18389 36947 ft 541 kts 152°
2026-04-22 19:53 22.93548 -5.13510 36947 ft 541 kts 152°
2026-04-22 19:53 22.87521 -5.08652 36948 ft 540 kts 152°
2026-04-22 19:54 22.81483 -5.03792 36949 ft 540 kts 152°
2026-04-22 19:54 22.75441 -4.98934 36949 ft 540 kts 152°
2026-04-22 19:55 22.69410 -4.94090 36927 ft 540 kts 152°
2026-04-22 19:55 22.63384 -4.89255 36944 ft 539 kts 152°
2026-04-22 19:56 22.57351 -4.84420 36948 ft 539 kts 152°
2026-04-22 19:56 22.51327 -4.79598 36943 ft 539 kts 152°
2026-04-22 19:57 22.45333 -4.74805 36949 ft 539 kts 152°
2026-04-22 19:57 22.39273 -4.69965 36949 ft 538 kts 152°
2026-04-22 19:58 22.33291 -4.65191 36943 ft 537 kts 152°
2026-04-22 19:58 22.27289 -4.60407 36943 ft 536 kts 152°
2026-04-22 20:00 22.06333 -4.43747 36916 ft 534 kts 152°
2026-04-22 20:01 22.00367 -4.39015 36934 ft 533 kts 152°
2026-04-22 20:01 21.94392 -4.34281 36950 ft 532 kts 152°
2026-04-22 20:02 21.88431 -4.29564 36945 ft 532 kts 152°
2026-04-22 20:02 21.82479 -4.24859 36948 ft 531 kts 152°
2026-04-22 20:03 21.76523 -4.20155 36952 ft 531 kts 152°
2026-04-22 20:03 21.70599 -4.15481 36956 ft 530 kts 152°
2026-04-22 20:04 21.64647 -4.10790 36961 ft 529 kts 152°
2026-04-22 20:04 21.58720 -4.06123 36943 ft 529 kts 152°
2026-04-22 20:05 21.52777 -4.01449 36962 ft 528 kts 152°
2026-04-22 20:05 21.46847 -3.96790 36946 ft 528 kts 152°
2026-04-22 20:06 21.40921 -3.92138 36953 ft 528 kts 152°
2026-04-22 20:06 21.34992 -3.87488 36960 ft 528 kts 152°
2026-04-22 20:07 21.29058 -3.82842 36953 ft 528 kts 152°
2026-04-22 20:07 21.23119 -3.78200 36947 ft 528 kts 152°
2026-04-22 20:08 21.17184 -3.73562 36969 ft 528 kts 152°
2026-04-22 20:08 21.11241 -3.68923 36953 ft 529 kts 152°
2026-04-22 20:09 21.05292 -3.64282 36950 ft 529 kts 152°
2026-04-22 20:09 20.99338 -3.59642 36946 ft 529 kts 152°
2026-04-22 20:10 20.93403 -3.55021 36953 ft 529 kts 152°
2026-04-22 20:10 20.87443 -3.50387 36952 ft 529 kts 152°
2026-04-22 20:11 20.81503 -3.45773 36949 ft 528 kts 152°
2026-04-22 20:11 20.75594 -3.41186 36930 ft 528 kts 152°
2026-04-22 20:12 20.69658 -3.36584 36943 ft 527 kts 152°
2026-04-22 20:12 20.64720 -3.32758 36950 ft 527 kts 152°
2026-04-22 20:13 20.57794 -3.27398 36951 ft 526 kts 152°
2026-04-22 20:13 20.51881 -3.22828 36951 ft 525 kts 152°
2026-04-22 20:14 20.45962 -3.18256 36955 ft 525 kts 152°
2026-04-22 20:14 20.40059 -3.13702 36955 ft 523 kts 152°
2026-04-22 20:15 20.34160 -3.09155 36953 ft 522 kts 152°
2026-04-22 20:15 20.28269 -3.04619 36952 ft 522 kts 152°
2026-04-22 20:16 20.23388 -3.00864 36951 ft 522 kts 152°
2026-04-22 20:16 20.17492 -2.96332 36959 ft 522 kts 152°
2026-04-22 20:17 20.11609 -2.91814 36954 ft 522 kts 152°
2026-04-22 20:17 20.05726 -2.87301 36949 ft 521 kts 152°
2026-04-22 20:18 19.99839 -2.82788 36948 ft 521 kts 152°
2026-04-22 20:18 19.93966 -2.78290 36951 ft 521 kts 152°
2026-04-22 20:19 19.88076 -2.73784 36951 ft 521 kts 152°
2026-04-22 20:19 19.82184 -2.69280 36951 ft 521 kts 152°
2026-04-22 20:20 19.76299 -2.64786 36920 ft 521 kts 151°
2026-04-22 20:20 19.70416 -2.60297 36938 ft 520 kts 151°
2026-04-22 20:21 19.64551 -2.55826 36953 ft 520 kts 151°
2026-04-22 20:21 19.58661 -2.51341 36945 ft 520 kts 151°
2026-04-22 20:22 19.52785 -2.46871 36946 ft 520 kts 151°
2026-04-22 20:22 19.46906 -2.42402 36951 ft 520 kts 152°
2026-04-22 20:23 19.41027 -2.37937 36942 ft 519 kts 151°
2026-04-22 20:23 19.35155 -2.33481 36941 ft 519 kts 151°
2026-04-22 20:24 19.29285 -2.29031 36954 ft 518 kts 151°
2026-04-22 20:24 19.23432 -2.24598 36946 ft 518 kts 151°
2026-04-22 20:25 19.17599 -2.20184 36952 ft 518 kts 151°
2026-04-22 20:25 19.11698 -2.15722 36950 ft 518 kts 151°
2026-04-22 20:26 19.05878 -2.11326 36944 ft 517 kts 151°
2026-04-22 20:26 19.00024 -2.06908 36944 ft 517 kts 151°
2026-04-22 20:27 18.94178 -2.02499 36948 ft 516 kts 151°
2026-04-22 20:27 18.88333 -1.98096 36950 ft 516 kts 151°
2026-04-22 20:28 18.82490 -1.93698 36950 ft 516 kts 151°
2026-04-22 20:28 18.76646 -1.89302 36925 ft 516 kts 151°
2026-04-22 20:29 18.70799 -1.84908 36944 ft 515 kts 151°
2026-04-22 20:29 18.64965 -1.80527 36945 ft 515 kts 151°
2026-04-22 20:30 18.59118 -1.76140 36950 ft 515 kts 151°
2026-04-22 20:30 18.53277 -1.71765 36945 ft 515 kts 151°
2026-04-22 20:31 18.47438 -1.67399 36942 ft 515 kts 151°
2026-04-22 20:31 18.41591 -1.63031 36922 ft 515 kts 150°
2026-04-22 20:32 18.35757 -1.58674 36931 ft 514 kts 150°
2026-04-22 20:32 18.29919 -1.54317 36938 ft 514 kts 151°
2026-04-22 20:33 18.24083 -1.49965 36933 ft 514 kts 151°
2026-04-22 20:33 18.18236 -1.45609 36938 ft 514 kts 151°
2026-04-22 20:34 18.12400 -1.41265 36931 ft 514 kts 151°
2026-04-22 20:34 18.06559 -1.36923 36929 ft 514 kts 151°
2026-04-22 20:35 18.00719 -1.32584 36929 ft 514 kts 151°
2026-04-22 20:35 17.94884 -1.28251 36929 ft 514 kts 151°
2026-04-22 20:36 17.89037 -1.23912 36928 ft 514 kts 151°
2026-04-22 20:36 17.83186 -1.19573 36925 ft 514 kts 151°
2026-04-22 20:37 17.77340 -1.15242 36927 ft 515 kts 151°
2026-04-22 20:37 17.71491 -1.10912 36914 ft 515 kts 151°
2026-04-22 20:38 17.65644 -1.06587 36920 ft 515 kts 151°
2026-04-22 20:38 17.59794 -1.02264 36921 ft 515 kts 151°
2026-04-22 20:39 17.53987 -0.97975 36918 ft 515 kts 151°
2026-04-22 20:39 17.48124 -0.93649 36919 ft 515 kts 151°
2026-04-22 20:40 17.42263 -0.89328 36915 ft 515 kts 151°
2026-04-22 20:40 17.36413 -0.85018 36918 ft 515 kts 150°
2026-04-22 20:41 17.30548 -0.80701 36912 ft 515 kts 150°
2026-04-22 20:41 17.24692 -0.76394 36916 ft 515 kts 150°
2026-04-22 20:42 17.18831 -0.72086 36910 ft 515 kts 150°
2026-04-22 20:42 17.12971 -0.67783 36925 ft 515 kts 150°
2026-04-22 20:43 17.07097 -0.63473 36912 ft 515 kts 150°
2026-04-22 20:43 17.01232 -0.59172 36920 ft 515 kts 150°
2026-04-22 20:44 16.95365 -0.54874 36915 ft 515 kts 150°
2026-04-22 20:44 16.89486 -0.50570 36923 ft 515 kts 150°
2026-04-22 20:45 16.83663 -0.46311 36924 ft 515 kts 150°
2026-04-22 20:45 16.77792 -0.42019 36913 ft 515 kts 150°
2026-04-22 20:46 16.69001 -0.35599 36899 ft 514 kts 150°
2026-04-22 20:46 16.63142 -0.31324 36916 ft 513 kts 150°
2026-04-22 20:47 16.57297 -0.27063 36924 ft 513 kts 150°
2026-04-22 20:47 16.51454 -0.22807 36926 ft 513 kts 150°
2026-04-22 20:48 16.45602 -0.18547 36928 ft 513 kts 150°
2026-04-22 20:48 16.39758 -0.14296 36933 ft 513 kts 150°
2026-04-22 20:49 16.33913 -0.10047 36924 ft 512 kts 150°
2026-04-22 20:49 16.28077 -0.05806 36935 ft 511 kts 150°
2026-04-22 20:50 16.22273 -0.01535 36935 ft 511 kts 148°
2026-04-22 20:50 16.16671 0.03045 36904 ft 513 kts 146°
2026-04-22 20:51 16.11165 0.07674 36919 ft 512 kts 146°
2026-04-22 20:51 16.05592 0.12300 36913 ft 512 kts 146°
2026-04-22 20:52 15.99963 0.16928 36913 ft 512 kts 146°
2026-04-22 20:52 15.94411 0.21486 36904 ft 512 kts 146°
2026-04-22 20:53 15.88830 0.26072 36894 ft 511 kts 146°
2026-04-22 20:53 15.83256 0.30648 36899 ft 510 kts 146°
2026-04-22 20:54 15.77707 0.35211 36896 ft 509 kts 146°
2026-04-22 20:54 15.72152 0.39780 36893 ft 508 kts 146°
2026-04-22 20:55 15.66623 0.44323 36897 ft 508 kts 146°
2026-04-22 20:55 15.61084 0.48872 36890 ft 507 kts 146°
2026-04-22 20:56 15.55548 0.53415 36882 ft 507 kts 146°
2026-04-22 20:56 15.50034 0.57937 36885 ft 506 kts 146°
2026-04-22 20:57 15.44514 0.62459 36884 ft 505 kts 146°
2026-04-22 20:57 15.39000 0.66955 36888 ft 505 kts 146°
2026-04-22 20:58 15.33467 0.71454 36879 ft 504 kts 146°
2026-04-22 20:58 15.27955 0.75936 36874 ft 504 kts 146°
2026-04-22 20:59 15.22440 0.80421 36879 ft 504 kts 146°
2026-04-22 20:59 15.16924 0.84904 36881 ft 504 kts 146°
2026-04-22 21:00 15.11446 0.89353 36885 ft 504 kts 146°
2026-04-22 21:00 15.05901 0.93853 36883 ft 504 kts 146°
2026-04-22 21:01 15.00415 0.98302 36878 ft 504 kts 146°
2026-04-22 21:01 14.94904 1.02769 36878 ft 504 kts 146°
2026-04-22 21:02 14.89389 1.07235 36868 ft 504 kts 145°
2026-04-22 21:02 14.83868 1.11704 36879 ft 503 kts 145°
2026-04-22 21:03 14.78350 1.16168 36864 ft 504 kts 145°
2026-04-22 21:03 14.72833 1.20627 36883 ft 504 kts 145°
2026-04-22 21:04 14.67305 1.25092 36872 ft 505 kts 145°
2026-04-22 21:04 14.62703 1.28808 36869 ft 506 kts 145°
2026-04-22 21:05 14.57152 1.33286 36878 ft 506 kts 145°
2026-04-22 21:05 14.51599 1.37764 36877 ft 507 kts 145°
2026-04-22 21:06 14.46027 1.42253 36875 ft 508 kts 145°
2026-04-22 21:06 14.40460 1.46736 36874 ft 508 kts 145°
2026-04-22 21:07 14.34886 1.51222 36870 ft 508 kts 145°
2026-04-22 21:07 14.29317 1.55700 36868 ft 508 kts 146°
2026-04-22 21:08 14.23729 1.60191 36879 ft 508 kts 146°
2026-04-22 21:08 14.18160 1.64664 36877 ft 508 kts 145°
2026-04-22 21:09 14.12577 1.69145 36879 ft 508 kts 145°
2026-04-22 21:09 14.07000 1.73619 36879 ft 508 kts 145°
2026-04-22 21:10 14.01420 1.78092 36879 ft 508 kts 145°
2026-04-22 21:10 13.95859 1.82548 36882 ft 507 kts 145°
2026-04-22 21:11 13.90286 1.87009 36881 ft 507 kts 145°
2026-04-22 21:11 13.84719 1.91463 36852 ft 507 kts 145°
2026-04-22 21:12 13.79155 1.95913 36871 ft 505 kts 145°
2026-04-22 21:12 13.73621 2.00336 36880 ft 504 kts 145°
2026-04-22 21:13 13.68121 2.04729 36881 ft 503 kts 145°
2026-04-22 21:13 13.62573 2.09157 36884 ft 502 kts 145°
2026-04-22 21:14 13.57093 2.13529 36884 ft 501 kts 145°
2026-04-22 21:14 13.51603 2.17907 36884 ft 500 kts 145°
2026-04-22 21:15 13.46469 2.22741 36889 ft 503 kts 130°
2026-04-22 21:15 13.42317 2.28526 36884 ft 502 kts 127°
2026-04-22 21:16 13.38259 2.34330 36877 ft 500 kts 127°
2026-04-22 21:16 13.34164 2.40097 36884 ft 498 kts 128°
2026-04-22 21:17 13.30061 2.45809 36879 ft 497 kts 128°
2026-04-22 21:17 13.25948 2.51515 36883 ft 496 kts 128°
2026-04-22 21:18 13.21843 2.57210 36879 ft 496 kts 128°
2026-04-22 21:18 13.17741 2.62900 36877 ft 496 kts 128°
2026-04-22 21:19 13.13634 2.68595 36874 ft 497 kts 128°
2026-04-22 21:19 13.09512 2.74309 36878 ft 498 kts 127°
2026-04-22 21:20 13.05382 2.80028 36871 ft 499 kts 127°
2026-04-22 21:20 13.01251 2.85746 36865 ft 500 kts 127°
2026-04-22 21:21 12.97106 2.91480 36865 ft 500 kts 127°
2026-04-22 21:21 12.92957 2.97214 36866 ft 501 kts 127°
2026-04-22 21:22 12.88798 3.02960 36857 ft 501 kts 127°
2026-04-22 21:22 12.84671 3.08658 36854 ft 501 kts 128°
2026-04-22 21:23 12.80512 3.14396 36860 ft 501 kts 128°
2026-04-22 21:23 12.76357 3.20125 36857 ft 501 kts 128°
2026-04-22 21:24 12.72199 3.25855 36849 ft 500 kts 128°
2026-04-22 21:24 12.68057 3.31560 36848 ft 499 kts 128°
2026-04-22 21:25 12.63919 3.37255 36845 ft 498 kts 128°
2026-04-22 21:25 12.59792 3.42935 36848 ft 496 kts 128°
2026-04-22 21:26 12.55670 3.48601 36850 ft 495 kts 128°
2026-04-22 21:26 12.51566 3.54246 36844 ft 494 kts 128°
2026-04-22 21:27 12.47459 3.59894 36845 ft 494 kts 128°
2026-04-22 21:27 12.43216 3.65402 36841 ft 492 kts 133°
2026-04-22 21:28 12.38548 3.70515 36842 ft 492 kts 135°
2026-04-22 21:28 12.33851 3.75548 36842 ft 492 kts 135°
2026-04-22 21:29 12.29170 3.80646 36839 ft 492 kts 135°
2026-04-22 21:29 12.24482 3.85803 36834 ft 491 kts 135°
2026-04-22 21:30 12.19837 3.90921 36833 ft 491 kts 135°
2026-04-22 21:30 12.15194 3.96028 36833 ft 491 kts 135°
2026-04-22 21:31 12.10542 4.01140 36827 ft 490 kts 135°
2026-04-22 21:31 12.05898 4.06239 36831 ft 490 kts 135°
2026-04-22 21:32 12.01261 4.11328 36832 ft 490 kts 135°
2026-04-22 21:32 11.96618 4.16423 36827 ft 489 kts 135°
2026-04-22 21:33 11.91993 4.21495 36826 ft 488 kts 135°
2026-04-22 21:33 11.87369 4.26559 36828 ft 487 kts 135°
2026-04-22 21:34 11.82757 4.31605 36827 ft 486 kts 135°
2026-04-22 21:34 11.78152 4.36643 36829 ft 485 kts 135°
2026-04-22 21:35 11.73575 4.41647 36828 ft 484 kts 135°
2026-04-22 21:35 11.68977 4.46673 36826 ft 484 kts 135°
2026-04-22 21:36 11.64391 4.51685 36832 ft 484 kts 135°
2026-04-22 21:36 11.59804 4.56693 36826 ft 483 kts 135°
2026-04-22 21:37 11.55187 4.61679 36827 ft 482 kts 135°
2026-04-22 21:37 11.50563 4.66630 36826 ft 482 kts 135°
2026-04-22 21:38 11.45949 4.71573 36829 ft 481 kts 135°
2026-04-22 21:38 11.41335 4.76521 36826 ft 481 kts 135°
2026-04-22 21:39 11.36731 4.81460 36832 ft 481 kts 135°
2026-04-22 21:39 11.32123 4.86401 36830 ft 481 kts 135°
2026-04-22 21:40 11.27512 4.91342 36829 ft 481 kts 135°
2026-04-22 21:40 11.22906 4.96276 36840 ft 480 kts 135°
2026-04-22 21:41 11.18300 5.01206 36836 ft 480 kts 135°
2026-04-22 21:41 11.13709 5.06119 36833 ft 479 kts 135°
2026-04-22 21:42 11.09107 5.11040 36833 ft 479 kts 135°
2026-04-22 21:42 11.04520 5.15943 36833 ft 478 kts 135°
2026-04-22 21:43 10.99966 5.20809 36835 ft 478 kts 135°
2026-04-22 21:43 10.95385 5.25701 36832 ft 477 kts 135°
2026-04-22 21:44 10.90811 5.30583 36843 ft 477 kts 135°
2026-04-22 21:44 10.86236 5.35463 36835 ft 477 kts 135°
2026-04-22 21:45 10.81660 5.40344 36846 ft 476 kts 135°
2026-04-22 21:45 10.77078 5.45227 36839 ft 477 kts 135°
2026-04-22 21:46 10.72504 5.50100 36844 ft 477 kts 135°
2026-04-22 21:46 10.68696 5.54156 36841 ft 477 kts 135°
2026-04-22 21:47 10.63339 5.59858 36842 ft 477 kts 135°
2026-04-22 21:47 10.58752 5.64738 36845 ft 478 kts 135°
2026-04-22 21:48 10.54159 5.69622 36842 ft 478 kts 135°
2026-04-22 21:48 10.49571 5.74500 36852 ft 477 kts 135°
2026-04-22 21:49 10.45754 5.78556 36836 ft 477 kts 135°
2026-04-22 21:49 10.40401 5.84241 36841 ft 476 kts 135°
2026-04-22 21:50 10.35824 5.89101 36836 ft 475 kts 135°
2026-04-22 21:50 10.32033 5.93124 36839 ft 474 kts 135°
2026-04-22 21:51 10.27477 5.97971 36835 ft 473 kts 135°
2026-04-22 21:52 10.20670 6.05217 36834 ft 472 kts 135°
2026-04-22 21:52 10.16134 6.10042 36832 ft 472 kts 136°
2026-04-22 21:53 10.11597 6.14854 36840 ft 472 kts 136°
2026-04-22 21:53 10.07045 6.19656 36827 ft 471 kts 136°
2026-04-22 21:54 10.02531 6.24418 36828 ft 471 kts 136°
2026-04-22 21:54 9.97990 6.29211 36835 ft 471 kts 136°
2026-04-22 21:55 9.93448 6.34004 36822 ft 471 kts 136°
2026-04-22 21:55 9.88911 6.38795 36831 ft 471 kts 136°
2026-04-22 21:56 9.84372 6.43599 36827 ft 472 kts 136°
2026-04-22 21:56 9.79832 6.48403 36832 ft 472 kts 136°
2026-04-22 21:57 9.75292 6.53205 36830 ft 472 kts 136°
2026-04-22 21:57 9.70747 6.58009 36833 ft 472 kts 136°
2026-04-22 21:58 9.66249 6.62869 36835 ft 472 kts 134°
2026-04-22 21:58 9.61821 6.67788 36833 ft 473 kts 134°
2026-04-22 21:59 9.57382 6.72711 36840 ft 473 kts 134°
2026-04-22 21:59 9.52930 6.77627 36840 ft 473 kts 134°
2026-04-22 22:00 9.48482 6.82528 36840 ft 473 kts 134°
2026-04-22 22:00 9.44025 6.87437 36838 ft 473 kts 134°
2026-04-22 22:01 9.39568 6.92345 36841 ft 474 kts 134°
2026-04-22 22:01 9.35114 6.97250 36835 ft 473 kts 134°
2026-04-22 22:02 9.30654 7.02158 36842 ft 473 kts 134°
2026-04-22 22:02 9.26044 7.06900 36841 ft 472 kts 138°
2026-04-22 22:03 9.21278 7.11479 36838 ft 472 kts 138°
2026-04-22 22:03 9.16528 7.16068 36840 ft 472 kts 138°
2026-04-22 22:04 9.11807 7.20675 36840 ft 472 kts 138°
2026-04-22 22:04 9.07113 7.25264 36842 ft 471 kts 138°
2026-04-22 22:05 9.02396 7.29864 36844 ft 471 kts 138°
2026-04-22 22:05 8.97668 7.34437 36845 ft 470 kts 138°
2026-04-22 22:06 8.92910 7.39028 36834 ft 469 kts 138°
2026-04-22 22:06 8.88219 7.43559 36835 ft 468 kts 138°
2026-04-22 22:07 8.83516 7.48102 36837 ft 468 kts 138°
2026-04-22 22:07 8.78812 7.52645 36836 ft 467 kts 138°
2026-04-22 22:08 8.74117 7.57178 36835 ft 466 kts 138°
2026-04-22 22:08 8.69427 7.61705 36826 ft 466 kts 138°
2026-04-22 22:09 8.64728 7.66238 36833 ft 466 kts 138°
2026-04-22 22:09 8.60035 7.70764 36831 ft 467 kts 137°
2026-04-22 22:10 8.55336 7.75294 36824 ft 468 kts 137°
2026-04-22 22:10 8.50621 7.79838 36826 ft 469 kts 137°
2026-04-22 22:11 8.45895 7.84392 36823 ft 469 kts 137°
2026-04-22 22:11 8.41171 7.88941 36822 ft 470 kts 137°
2026-04-22 22:12 8.36431 7.93504 36818 ft 470 kts 137°
2026-04-22 22:12 8.31695 7.98063 36823 ft 471 kts 137°
2026-04-22 22:13 8.26954 8.02625 36824 ft 471 kts 137°
2026-04-22 22:13 8.22213 8.07185 36818 ft 471 kts 137°
2026-04-22 22:14 8.17596 8.11883 36820 ft 471 kts 134°
2026-04-22 22:14 8.13088 8.16678 36816 ft 471 kts 134°
2026-04-22 22:15 8.08577 8.21451 36818 ft 470 kts 134°
2026-04-22 22:15 8.04042 8.26206 36816 ft 470 kts 135°
2026-04-22 22:16 7.99503 8.30952 36816 ft 469 kts 135°
2026-04-22 22:16 7.94975 8.35684 36817 ft 469 kts 135°
2026-04-22 22:17 7.90446 8.40418 36816 ft 469 kts 135°
2026-04-22 22:17 7.85926 8.45141 36816 ft 468 kts 135°
2026-04-22 22:18 7.81394 8.49875 36808 ft 468 kts 135°
2026-04-22 22:18 7.76871 8.54599 36808 ft 468 kts 135°
2026-04-22 22:19 7.73116 8.58520 36817 ft 468 kts 135°
2026-04-22 22:19 7.67591 8.63799 36808 ft 468 kts 140°
2026-04-22 22:20 7.62627 8.68050 36813 ft 468 kts 140°
2026-04-22 22:20 7.57683 8.72304 36810 ft 468 kts 140°
2026-04-22 22:21 7.52757 8.76606 36812 ft 468 kts 140°
2026-04-22 22:21 7.47870 8.80895 36804 ft 469 kts 140°
2026-04-22 22:22 7.42952 8.85209 36815 ft 469 kts 140°
2026-04-22 22:22 7.38039 8.89515 36803 ft 469 kts 140°
2026-04-22 22:23 7.33107 8.93836 36815 ft 470 kts 140°
2026-04-22 22:23 7.28176 8.98155 36805 ft 470 kts 139°
2026-04-22 22:24 7.23395 9.02631 36799 ft 470 kts 133°
2026-04-22 22:24 7.19055 9.07559 36810 ft 470 kts 131°
2026-04-22 22:25 7.14707 9.12476 36798 ft 470 kts 133°
2026-04-22 22:25 7.10060 9.17085 36792 ft 467 kts 148°
2026-04-22 22:25 7.07190 9.18562 36816 ft 464 kts 161°
2026-04-22 22:26 7.04069 9.19362 36807 ft 462 kts 175°
2026-04-22 22:26 6.97671 9.19761 36810 ft 461 kts 178°
2026-04-22 22:27 6.91259 9.20104 36804 ft 462 kts 178°
2026-04-22 22:27 6.84842 9.20497 36815 ft 462 kts 177°
2026-04-22 22:28 6.78409 9.20920 36812 ft 463 kts 177°
2026-04-22 22:28 6.72030 9.21346 36829 ft 462 kts 176°
2026-04-22 22:29 6.65565 9.21778 36818 ft 462 kts 176°
2026-04-22 22:29 6.59201 9.22202 36822 ft 461 kts 176°
2026-04-22 22:30 6.52803 9.22626 36827 ft 460 kts 176°
2026-04-22 22:30 6.46429 9.23049 36828 ft 459 kts 176°
2026-04-22 22:31 6.40068 9.23471 36825 ft 458 kts 176°
2026-04-22 22:31 6.33713 9.23892 36828 ft 457 kts 176°
2026-04-22 22:32 6.27378 9.24312 36831 ft 455 kts 176°
2026-04-22 22:32 6.21067 9.24730 36841 ft 453 kts 176°
2026-04-22 22:33 6.14801 9.25175 36644 ft 447 kts 174°
2026-04-22 22:33 6.11692 9.25510 35857 ft 452 kts 173°
2026-04-22 22:33 6.09628 9.25765 35476 ft 451 kts 173°
2026-04-22 22:33 6.05426 9.26300 34536 ft 456 kts 173°
2026-04-22 22:34 6.02270 9.26695 33828 ft 460 kts 173°
2026-04-22 22:34 5.99077 9.27083 33027 ft 464 kts 173°
2026-04-22 22:34 5.95872 9.27462 32432 ft 463 kts 173°
2026-04-22 22:34 5.92680 9.27835 31879 ft 462 kts 174°
2026-04-22 22:35 5.89486 9.28206 31355 ft 461 kts 174°
2026-04-22 22:35 5.86305 9.28574 30827 ft 460 kts 174°
2026-04-22 22:35 5.83124 9.28944 30295 ft 459 kts 174°
2026-04-22 22:35 5.79951 9.29312 29752 ft 460 kts 174°
2026-04-22 22:36 5.76737 9.29686 29171 ft 469 kts 174°
2026-04-22 22:36 5.73481 9.30064 28609 ft 472 kts 174°
2026-04-22 22:36 5.70227 9.30457 28059 ft 469 kts 172°
2026-04-22 22:36 5.67072 9.31023 27602 ft 464 kts 169°
2026-04-22 22:37 5.63922 9.31703 27160 ft 452 kts 167°
2026-04-22 22:37 5.60883 9.32401 26485 ft 444 kts 167°
2026-04-22 22:37 5.57894 9.33094 25731 ft 439 kts 167°
2026-04-22 22:37 5.55923 9.33547 25271 ft 435 kts 167°
2026-04-22 22:38 5.52060 9.34418 24434 ft 425 kts 167°
2026-04-22 22:38 5.50119 9.34849 24028 ft 420 kts 167°
2026-04-22 22:38 5.46376 9.35671 23107 ft 413 kts 167°
2026-04-22 22:38 5.44489 9.36083 22701 ft 409 kts 167°
2026-04-22 22:39 5.41752 9.36678 22205 ft 406 kts 167°
2026-04-22 22:39 5.38973 9.37282 21727 ft 403 kts 167°
2026-04-22 22:39 5.36241 9.37875 21266 ft 399 kts 167°
2026-04-22 22:39 5.33541 9.38461 20795 ft 396 kts 167°
2026-04-22 22:40 5.30861 9.39044 20362 ft 392 kts 167°
2026-04-22 22:40 5.28208 9.39620 19918 ft 389 kts 167°
2026-04-22 22:40 5.25608 9.40186 19501 ft 385 kts 166°
2026-04-22 22:40 5.22974 9.40759 19063 ft 382 kts 166°
2026-04-22 22:41 5.20384 9.41321 18630 ft 379 kts 166°
2026-04-22 22:41 5.17840 9.41874 18197 ft 377 kts 166°
2026-04-22 22:41 5.15289 9.42428 17706 ft 374 kts 166°
2026-04-22 22:41 5.12759 9.42978 17232 ft 371 kts 166°
2026-04-22 22:42 5.10251 9.43522 16800 ft 367 kts 166°
2026-04-22 22:42 5.07752 9.44065 16370 ft 364 kts 165°
2026-04-22 22:42 5.05294 9.44599 15950 ft 360 kts 165°
2026-04-22 22:42 5.02856 9.45128 15549 ft 358 kts 165°
2026-04-22 22:43 5.00424 9.45656 15113 ft 356 kts 165°
2026-04-22 22:43 4.98006 9.46182 14698 ft 354 kts 165°
2026-04-22 22:43 4.95607 9.46703 14288 ft 352 kts 164°
2026-04-22 22:43 4.93223 9.47221 13884 ft 350 kts 164°
2026-04-22 22:44 4.90855 9.47735 13448 ft 348 kts 164°
2026-04-22 22:44 4.88494 9.48248 13005 ft 346 kts 164°
2026-04-22 22:44 4.86140 9.48759 12561 ft 344 kts 164°
2026-04-22 22:44 4.83812 9.49265 12142 ft 341 kts 163°
2026-04-22 22:45 4.81499 9.49767 11736 ft 339 kts 163°
2026-04-22 22:45 4.79197 9.50267 11370 ft 339 kts 163°
2026-04-22 22:45 4.76876 9.50772 10919 ft 342 kts 163°
2026-04-22 22:45 4.74563 9.51274 10566 ft 339 kts 163°
2026-04-22 22:46 4.72295 9.51764 10430 ft 327 kts 163°
2026-04-22 22:46 4.70107 9.52236 10298 ft 318 kts 163°
2026-04-22 22:46 4.67975 9.52698 10154 ft 309 kts 163°
2026-04-22 22:46 4.65902 9.53147 10037 ft 301 kts 163°
2026-04-22 22:47 4.63881 9.53586 9803 ft 297 kts 162°
2026-04-22 22:47 4.61869 9.54025 9499 ft 295 kts 163°
2026-04-22 22:47 4.59864 9.54463 9189 ft 294 kts 163°
2026-04-22 22:47 4.57869 9.54896 8896 ft 292 kts 163°
2026-04-22 22:48 4.55892 9.55326 8607 ft 291 kts 163°
2026-04-22 22:48 4.53919 9.55754 8328 ft 289 kts 164°
2026-04-22 22:48 4.51958 9.56179 8037 ft 288 kts 164°
2026-04-22 22:48 4.50010 9.56602 7745 ft 286 kts 164°
2026-04-22 22:49 4.48087 9.57075 7521 ft 281 kts 159°
2026-04-22 22:49 4.46250 9.57701 7283 ft 278 kts 157°
2026-04-22 22:49 4.44438 9.58364 7017 ft 277 kts 156°
2026-04-22 22:49 4.42652 9.59020 6740 ft 276 kts 157°
2026-04-22 22:50 4.40855 9.59673 6458 ft 275 kts 158°
2026-04-22 22:50 4.39030 9.60330 6166 ft 276 kts 158°
2026-04-22 22:50 4.37220 9.60977 5852 ft 276 kts 159°
2026-04-22 22:50 4.35436 9.61611 5580 ft 275 kts 159°
2026-04-22 22:51 4.33606 9.62259 5274 ft 275 kts 159°
2026-04-22 22:51 4.31825 9.62889 4994 ft 275 kts 160°
2026-04-22 22:51 4.30003 9.63532 4696 ft 274 kts 160°
2026-04-22 22:51 4.28231 9.64158 4407 ft 273 kts 160°
2026-04-22 22:52 4.26439 9.64789 4104 ft 272 kts 160°
2026-04-22 22:52 4.24657 9.65417 3824 ft 271 kts 160°
2026-04-22 22:52 4.22860 9.66051 3532 ft 270 kts 160°
2026-04-22 22:52 4.21091 9.66674 3248 ft 269 kts 160°
2026-04-22 22:53 4.19346 9.67324 3077 ft 263 kts 153°
2026-04-22 22:53 4.18025 9.68501 3012 ft 253 kts 121°
2026-04-22 22:53 4.17453 9.70120 3005 ft 251 kts 98°
2026-04-22 22:53 4.17475 9.71866 3000 ft 254 kts 83°
2026-04-22 22:54 4.17699 9.73635 2970 ft 257 kts 85°
2026-04-22 22:54 4.17756 9.75429 2912 ft 259 kts 92°
2026-04-22 22:54 4.17586 9.77223 2884 ft 258 kts 99°
2026-04-22 22:54 4.17213 9.78970 2843 ft 256 kts 105°
2026-04-22 22:55 4.16668 9.80663 2824 ft 255 kts 111°
2026-04-22 22:55 4.15973 9.82297 2798 ft 254 kts 116°
2026-04-22 22:55 4.14152 9.85330 2747 ft 256 kts 127°
2026-04-22 22:56 4.13017 9.86723 2727 ft 259 kts 133°
2026-04-22 22:56 4.11747 9.88004 2676 ft 259 kts 138°
2026-04-22 22:56 4.10353 9.89152 2689 ft 260 kts 144°
2026-04-22 22:56 4.08839 9.90170 2634 ft 263 kts 150°
2026-04-22 22:57 4.07240 9.91026 2600 ft 260 kts 156°
2026-04-22 22:57 4.05582 9.91712 2514 ft 253 kts 161°
2026-04-22 22:57 4.03909 9.92214 2484 ft 251 kts 167°
2026-04-22 22:57 4.02202 9.92554 2474 ft 250 kts 172°
2026-04-22 22:58 4.00468 9.92737 2454 ft 253 kts 177°
2026-04-22 22:58 3.98697 9.92759 2429 ft 256 kts 182°
2026-04-22 22:58 3.96920 9.92612 2408 ft 256 kts 188°
2026-04-22 22:58 3.95193 9.92295 2399 ft 250 kts 194°
2026-04-22 22:59 3.93545 9.91819 2285 ft 246 kts 201°
2026-04-22 22:59 3.92156 9.90870 2155 ft 236 kts 236°
2026-04-22 22:59 3.91718 9.89395 2142 ft 221 kts 276°
2026-04-22 22:59 3.92308 9.88038 2178 ft 214 kts 306°
2026-04-22 23:00 3.93092 9.86768 2139 ft 214 kts 295°
2026-04-22 23:00 3.93740 9.85443 2147 ft 211 kts 297°
2026-04-22 23:00 3.94421 9.84154 2141 ft 208 kts 297°
2026-04-22 23:00 3.95094 9.82873 2074 ft 211 kts 295°
2026-04-22 23:01 3.95778 9.81534 1826 ft 212 kts 295°
2026-04-22 23:01 3.96419 9.80262 1567 ft 202 kts 294°
2026-04-22 23:01 3.97038 9.79029 1313 ft 197 kts 295°
2026-04-22 23:01 3.97646 9.77823 1056 ft 190 kts 294°
2026-04-22 23:02 3.98220 9.76684 813 ft 177 kts 294°
2026-04-22 23:02 3.98741 9.75647 625 ft 157 kts 296°
2026-04-22 23:02 3.99208 9.74720 420 ft 145 kts 296°
2026-04-22 23:02 3.99663 9.73816 237 ft 147 kts 297°
2026-04-22 23:03 4.00125 9.72902 67 ft 147 kts 298°
2026-04-22 23:03 4.00558 9.72056 37 ft 122 kts 297°
2026-04-22 23:03 4.00763 9.71649 41 ft 30 kts 296°
2026-04-22 23:03 4.00853 9.71472 41 ft 24 kts 297°
2026-04-22 23:04 4.00860 9.71458 41 ft 0 kts 297°
2026-04-22 23:05 4.00882 9.71416 41 ft 13 kts 297°
2026-04-22 23:05 4.00917 9.71350 42 ft 9 kts 306°
2026-04-22 23:05 4.00972 9.71336 42 ft 9 kts 16°
2026-04-22 23:05 4.01025 9.71361 43 ft 8 kts 28°
2026-04-22 23:06 4.01075 9.71389 43 ft 8 kts 28°
2026-04-22 23:06 4.01122 9.71419 56 ft 8 kts 47°
2026-04-22 23:06 4.01129 9.71470 43 ft 8 kts 112°
2026-04-22 23:06 4.01105 9.71517 42 ft 8 kts 118°
2026-04-22 23:07 4.01086 9.71564 42 ft 7 kts 96°
2026-04-22 23:07 4.01104 9.71603 41 ft 6 kts 45°
2026-04-22 23:07 4.01136 9.71630 40 ft 6 kts 56°
2026-04-22 23:07 4.01140 9.71663 41 ft 4 kts 104°
2026-04-22 23:08 4.01135 9.71670 39 ft 0 kts 127°
2026-04-22 23:08 4.01134 9.71671 39 ft 0 kts 120°
2026-04-22 23:08 4.01134 9.71672 39 ft 1 kts 120°
2026-04-22 23:08 4.01129 9.71681 41 ft 0 kts 120°